EW4676 Weather Reports


time (UTC)temp
F
wind
direction
speed
knots
gust
knots
rain 1hr
in
rain 24hr
in
rain mn
in
humidity
%
barometer
mb
20260906233911 97 145 4.3 9.6 0.00 0.00 0.00 38 1010.3
20260906233906 97 169 3.5 10.4 0.00 0.00 0.00 38 1010.3
20260906233511 97 152 4.3 10.4 0.00 0.00 0.00 39 1010.4
20260906232358 97 133 2.6 8.7 0.00 0.00 0.00 38 1010.3
20260906231853 97 136 2.6 9.6 0.00 0.00 0.00 38 1010.4
20260906231346 97 154 3.5 9.6 0.00 0.00 0.00 37 1010.4
20260906230846 97 80 2.6 10.4 0.00 0.00 0.00 37 1010.4
20260906230346 97 200 3.5 10.4 0.00 0.00 0.00 37 1010.3
20260906225843 97 180 4.3 10.4 0.00 0.00 0.00 37 1010.4
20260906225337 98 155 4.3 10.4 0.00 0.00 0.00 36 1010.3
20260906224831 98 101 4.3 10.4 0.00 0.00 0.00 37 1010.4
20260906224322 98 157 3.5 10.4 0.00 0.00 0.00 36 1010.4
20260906223812 98 101 4.3 10.4 0.00 0.00 0.00 36 1010.4
20260906223303 98 164 4.3 12.2 0.00 0.00 0.00 35 1010.5
20260906222756 99 91 4.3 12.2 0.00 0.00 0.00 36 1010.5
20260906222247 98 187 4.3 9.6 0.00 0.00 0.00 36 1010.4
20260906221736 98 192 3.5 11.3 0.00 0.00 0.00 37 1010.5
20260906221226 98 144 2.6 11.3 0.00 0.00 0.00 37 1010.5
20260906220717 98 78 3.5 7.8 0.00 0.00 0.00 36 1010.5
20260906220207 98 95 3.5 11.3 0.00 0.00 0.00 36 1010.6
20260906215701 99 55 3.5 11.3 0.00 0.00 0.00 37 1010.6
20260906215201 99 62 4.3 12.2 0.00 0.00 0.00 37 1010.6
20260906214700 99 91 5.2 12.2 0.00 0.00 0.00 37 1010.6
20260906214201 100 89 4.3 12.2 0.00 0.00 0.00 37 1010.7
20260906213703 99 61 4.3 9.6 0.00 0.00 0.00 37 1010.8
20260906213152 100 89 4.3 9.6 0.00 0.00 0.00 37 1010.8
20260906212646 100 95 1.7 7.8 0.00 0.00 0.00 37 1011.0
20260906212136 100 76 2.6 7.0 0.00 0.00 0.00 38 1011.1
20260906211627 99 77 2.6 8.7 0.00 0.00 0.00 38 1011.2
20260906211116 99 120 3.5 8.7 0.00 0.00 0.00 37 1011.2
20260906210606 100 136 4.3 9.6 0.00 0.00 0.00 38 1011.2
20260906210557 99 86 4.3 12.2 0.00 0.00 0.00 38 1011.3
20260906205546 98 138 4.3 12.2 0.00 0.00 0.00 38 1011.3
20260906205036 98 147 3.5 10.4 0.00 0.00 0.00 38 1011.4
20260906204526 99 48 3.5 8.7 0.00 0.00 0.00 38 1011.4
20260906204017 98 83 3.5 10.4 0.00 0.00 0.00 39 1011.6
20260906204007 99 30 3.5 10.4 0.00 0.00 0.00 39 1011.7
20260906202956 98 88 3.5 11.3 0.00 0.00 0.00 39 1011.7
20260906202446 99 76 3.5 11.3 0.00 0.00 0.00 39 1011.7
20260906201934 98 228 4.3 13.0 0.00 0.00 0.00 39 1011.8
20260906201925 99 87 4.3 13.0 0.00 0.00 0.00 39 1011.9
20260906200914 98 85 3.5 12.2 0.00 0.00 0.00 40 1011.9
20260906200906 97 89 3.5 12.2 0.00 0.00 0.00 40 1012.0
20260906195852 98 85 4.3 13.9 0.00 0.00 0.00 39 1012.0
20260906195342 99 104 5.2 15.6 0.00 0.00 0.00 39 1012.0
20260906194832 99 115 4.3 15.6 0.00 0.00 0.00 40 1012.0
20260906194322 98 63 3.5 8.7 0.00 0.00 0.00 41 1012.0
20260906193812 98 99 3.5 9.6 0.00 0.00 0.00 41 1012.1
20260906193302 98 103 3.5 9.6 0.00 0.00 0.00 40 1012.2
20260906192752 98 56 4.3 10.4 0.00 0.00 0.00 41 1012.2
20260906192242 97 111 3.5 9.6 0.00 0.00 0.00 42 1012.4
20260906191730 96 99 2.6 10.4 0.00 0.00 0.00 43 1012.5
20260906191220 98 62 3.5 10.4 0.00 0.00 0.00 42 1012.5
20260906190710 95 66 3.5 12.2 0.00 0.00 0.00 45 1012.6
20260906190200 96 116 3.5 12.2 0.00 0.00 0.00 44 1012.5
20260906185650 98 64 3.5 9.6 0.00 0.00 0.00 41 1012.6
20260906185641 97 149 4.3 13.9 0.00 0.00 0.00 43 1012.6
20260906184635 97 82 2.6 8.7 0.00 0.00 0.00 44 1012.7
20260906184630 96 89 3.5 13.9 0.00 0.00 0.00 43 1012.7
20260906183620 95 76 2.6 7.0 0.00 0.00 0.00 45 1012.7
20260906183108 97 141 3.5 8.7 0.00 0.00 0.00 43 1012.8
20260906182558 97 89 3.5 8.7 0.00 0.00 0.00 44 1012.9
20260906182040 97 153 3.5 8.7 0.00 0.00 0.00 44 1013.0
20260906181531 97 148 3.5 9.6 0.00 0.00 0.00 42 1013.0
20260906181020 97 106 3.5 9.6 0.00 0.00 0.00 43 1013.1
20260906180511 96 210 2.6 8.7 0.00 0.00 0.00 45 1013.1
20260906180000 96 87 2.6 8.7 0.00 0.00 0.00 45 1013.3
20260906175451 95 157 3.5 8.7 0.00 0.00 0.00 45 1013.4
20260906174941 97 99 2.6 8.7 0.00 0.00 0.00 46 1013.5
20260906174429 96 132 2.6 5.2 0.00 0.00 0.00 46 1013.6
20260906173917 94 282 2.6 7.8 0.00 0.00 0.00 48 1013.6
20260906173409 95 87 2.6 7.8 0.00 0.00 0.00 47 1013.8
20260906172858 95 38 1.7 7.0 0.00 0.00 0.00 47 1013.8
20260906172850 94 54 1.7 7.0 0.00 0.00 0.00 50 1013.9
20260906171838 94 59 2.6 6.1 0.00 0.00 0.00 49 1014.0
20260906171329 94 88 3.5 7.8 0.00 0.00 0.00 50 1014.1
20260906170818 94 124 2.6 7.8 0.00 0.00 0.00 48 1014.2
20260906170309 93 191 2.6 8.7 0.00 0.00 0.00 52 1014.2
20260906165756 93 93 2.6 8.7 0.00 0.00 0.00 51 1014.3
20260906165248 94 143 2.6 7.0 0.00 0.00 0.00 50 1014.3
20260906164736 94 91 1.7 7.0 0.00 0.00 0.00 50 1014.3
20260906164227 93 237 2.6 7.8 0.00 0.00 0.00 51 1014.3
20260906163716 93 179 2.6 7.8 0.00 0.00 0.00 50 1014.4
20260906163210 93 85 2.6 6.1 0.00 0.00 0.00 51 1014.4
20260906162702 92 103 2.6 7.8 0.00 0.00 0.00 52 1014.3
20260906162157 94 116 1.7 7.8 0.00 0.00 0.00 50 1014.3
20260906161650 93 113 2.6 7.0 0.00 0.00 0.00 54 1014.3
20260906161141 93 43 1.7 7.0 0.00 0.00 0.00 52 1014.3
20260906161130 92 135 2.6 7.0 0.00 0.00 0.00 56 1014.3
20260906160120 91 37 1.7 7.0 0.00 0.00 0.00 56 1014.4
20260906155610 91 81 1.7 4.3 0.00 0.00 0.00 55 1014.3
20260906155557 91 97 1.7 6.1 0.00 0.00 0.00 56 1014.4
20260906155200 90 81 1.7 6.1 0.00 0.00 0.00 56 1014.4
20260906154049 91 35 1.7 5.2 0.00 0.00 0.00 58 1014.4
20260906153542 89 132 2.6 5.2 0.00 0.00 0.00 60 1014.4
20260906153037 90 74 2.6 5.2 0.00 0.00 0.00 60 1014.2
20260906152530 88 66 1.7 5.2 0.00 0.00 0.00 61 1014.2
20260906152021 88 113 1.7 5.2 0.00 0.00 0.00 62 1014.3
20260906151519 87 136 2.6 6.1 0.00 0.00 0.00 63 1014.3
20260906151015 88 97 1.7 6.1 0.00 0.00 0.00 62 1014.3
20260906151009 88 157 0.9 4.3 0.00 0.00 0.00 64 1014.2
20260906150006 85 103 1.7 6.1 0.00 0.00 0.00 64 1014.2
20260906150001 86 168 1.7 5.2 0.00 0.00 0.00 65 1014.1
20260906144954 87 64 1.7 5.2 0.00 0.00 0.00 64 1014.1
20260906144449 87 68 0.9 5.2 0.00 0.00 0.00 63 1014.0
20260906143949 87 68 1.7 5.2 0.00 0.00 0.00 64 1014.0
20260906143439 86 64 1.7 5.2 0.00 0.00 0.00 66 1014.0
20260906142937 85 78 1.7 5.2 0.00 0.00 0.00 67 1014.1
20260906142514 85 97 0.9 3.5 0.00 0.00 0.00 68 1014.1
20260906142431 84 122 0.9 4.3 0.00 0.00 0.00 67 1014.1
20260906141925 85 80 0.9 3.5 0.00 0.00 0.00 66 1014.0
20260906141909 84 97 0.9 3.5 0.00 0.00 0.00 69 1014.0
20260906140359 83 91 0.0 3.5 0.00 0.00 0.00 70 1013.9
20260906135858 83 91 0.9 3.5 0.00 0.00 0.00 70 1014.0
20260906135853 82 108 0.9 4.3 0.00 0.00 0.00 72 1013.9
20260906135347 82 85 0.9 4.3 0.00 0.00 0.00 72 1013.8
20260906134340 81 114 0.9 2.6 0.00 0.00 0.00 73 1013.8
20260906133833 80 107 0.9 2.6 0.00 0.00 0.00 75 1013.9
20260906133828 79 96 0.9 2.6 0.00 0.00 0.00 76 1013.9
20260906132822 79 95 0.9 2.6 0.00 0.00 0.00 77 1013.9
20260906132311 79 94 0.0 2.6 0.00 0.00 0.00 77 1013.8
20260906131802 79 93 0.0 0.0 0.00 0.00 0.00 77 1013.8
20260906131300 79 93 0.0 0.0 0.00 0.00 0.00 77 1013.8
20260906130757 78 93 0.0 0.0 0.00 0.00 0.00 77 1013.9
20260906130257 78 93 0.0 0.9 0.00 0.00 0.00 77 1013.8
20260906125759 78 99 0.0 2.6 0.00 0.00 0.00 77 1013.7
20260906125755 78 93 0.0 2.6 0.00 0.00 0.00 77 1013.7
20260906124746 78 95 0.0 2.6 0.00 0.00 0.00 77 1013.6
20260906124236 78 101 0.9 3.5 0.00 0.00 0.00 77 1013.6
20260906123726 78 99 0.9 3.5 0.00 0.00 0.00 77 1013.7
20260906123715 78 99 0.9 3.5 0.00 0.00 0.00 77 1013.6
20260906122707 78 101 0.9 3.5 0.00 0.00 0.00 77 1013.5
20260906122155 78 96 0.9 3.5 0.00 0.00 0.00 76 1013.5
20260906121646 78 100 0.9 3.5 0.00 0.00 0.00 76 1013.5
20260906121135 78 101 1.7 4.3 0.00 0.00 0.00 76 1013.4
20260906120626 78 101 1.7 4.3 0.00 0.00 0.00 76 1013.4
20260906120115 78 99 1.7 4.3 0.00 0.00 0.00 76 1013.3
20260906115606 78 112 0.9 2.6 0.00 0.00 0.00 76 1013.3
20260906115556 78 119 0.0 0.0 0.00 0.00 0.00 76 1013.2
20260906114545 78 125 0.0 0.0 0.00 0.00 0.00 76 1013.2
20260906114027 78 129 0.0 0.0 0.00 0.00 0.00 76 1013.1
20260906113516 78 136 0.0 0.0 0.00 0.00 0.00 75 1013.0
20260906112959 78 138 0.0 0.0 0.00 0.00 0.00 75 1013.0
20260906112449 78 138 0.0 0.0 0.00 0.00 0.00 75 1013.0
20260906111939 79 138 0.0 0.0 0.00 0.00 0.00 75 1012.9
20260906111429 79 138 0.0 0.0 0.00 0.00 0.00 75 1012.9
20260906110918 79 139 0.0 0.0 0.00 0.00 0.00 74 1012.9
20260906110409 79 140 0.0 0.0 0.00 0.00 0.00 74 1012.9
20260906105859 79 141 0.0 0.0 0.00 0.00 0.00 74 1012.8
20260906105353 79 141 0.0 0.0 0.00 0.00 0.00 74 1012.8
20260906104843 79 141 0.0 0.0 0.00 0.00 0.00 74 1012.8
20260906104834 79 159 0.0 0.0 0.00 0.00 0.00 74 1012.8
20260906103823 79 186 0.0 0.0 0.00 0.00 0.00 73 1012.9
20260906103814 79 188 0.0 0.0 0.00 0.00 0.00 73 1012.9
20260906102803 79 189 0.0 0.0 0.00 0.00 0.00 73 1012.8
20260906102253 80 190 0.0 0.0 0.00 0.00 0.00 73 1012.8
20260906101743 80 189 0.0 0.0 0.00 0.00 0.00 72 1012.7
20260906101233 80 207 0.0 0.0 0.00 0.00 0.00 72 1012.6
20260906100723 80 207 0.0 0.0 0.00 0.00 0.00 72 1012.6
20260906100213 80 207 0.0 0.0 0.00 0.00 0.00 72 1012.5
20260906095703 80 207 0.0 0.0 0.00 0.00 0.00 72 1012.4
20260906095154 80 207 0.0 0.0 0.00 0.00 0.00 72 1012.3
20260906094644 80 209 0.0 0.0 0.00 0.00 0.00 72 1012.3
20260906094634 80 209 0.0 0.0 0.00 0.00 0.00 72 1012.1
20260906093622 80 210 0.0 0.0 0.00 0.00 0.00 71 1012.1
20260906093105 80 210 0.0 1.7 0.00 0.00 0.00 71 1012.2
20260906093047 80 211 0.0 0.9 0.00 0.00 0.00 71 1012.1
20260906092652 80 210 0.0 1.7 0.00 0.00 0.00 71 1012.1
20260906091535 81 211 0.0 0.9 0.00 0.00 0.00 71 1012.2
20260906091025 81 213 0.0 0.9 0.00 0.00 0.00 71 1012.2
20260906090515 81 214 0.0 1.7 0.00 0.00 0.00 71 1012.2
20260906090005 81 215 0.0 1.7 0.00 0.00 0.00 71 1012.1
20260906085957 81 214 0.0 2.6 0.00 0.00 0.00 70 1012.1
20260906084945 81 216 0.0 2.6 0.00 0.00 0.00 70 1012.1
20260906084435 81 208 0.0 2.6 0.00 0.00 0.00 70 1012.0
20260906083917 81 233 0.9 4.3 0.00 0.00 0.00 70 1012.0
20260906083407 81 228 0.9 5.2 0.00 0.00 0.00 70 1012.0
20260906082857 82 203 1.7 4.3 0.00 0.00 0.00 70 1012.0
20260906082347 82 195 1.7 7.0 0.00 0.00 0.00 69 1012.1
20260906081837 82 200 1.7 5.2 0.00 0.00 0.00 69 1012.0
20260906081327 82 199 1.7 7.0 0.00 0.00 0.00 69 1012.0
20260906080817 82 165 1.7 6.1 0.00 0.00 0.00 69 1012.0
20260906080307 82 200 1.7 4.3 0.00 0.00 0.00 69 1012.1
20260906075757 82 234 1.7 6.1 0.00 0.00 0.00 69 1012.2
20260906075240 82 166 1.7 6.1 0.00 0.00 0.00 69 1012.2
20260906074729 82 161 1.7 7.0 0.00 0.00 0.00 69 1012.2
20260906074721 83 181 1.7 7.0 0.00 0.00 0.00 68 1012.3
20260906073709 83 236 1.7 5.2 0.00 0.00 0.00 68 1012.2
20260906073701 83 222 1.7 7.8 0.00 0.00 0.00 68 1012.1
20260906072649 83 230 1.7 7.8 0.00 0.00 0.00 68 1012.2
20260906072140 83 204 1.7 7.0 0.00 0.00 0.00 68 1012.3
20260906071629 83 170 2.6 7.0 0.00 0.00 0.00 68 1012.3
20260906071120 83 155 3.5 8.7 0.00 0.00 0.00 68 1012.3
20260906070609 83 210 3.5 8.7 0.00 0.00 0.00 67 1012.4
20260906070055 83 170 3.5 9.6 0.00 0.00 0.00 67 1012.4
20260906065546 83 169 2.6 9.6 0.00 0.00 0.00 67 1012.5
20260906065036 83 186 2.6 7.8 0.00 0.00 0.00 67 1012.5
20260906064525 84 225 3.5 9.6 0.00 0.00 0.00 67 1012.5
20260906064016 84 121 4.3 9.6 0.00 0.00 0.00 67 1012.5
20260906064011 84 189 2.6 7.0 0.00 0.00 0.00 66 1012.5
20260906063001 84 178 2.6 7.0 0.00 0.00 0.00 66 1012.6
20260906062459 84 147 1.7 7.0 0.00 0.00 0.00 66 1012.6
20260906062454 84 180 1.7 3.5 0.00 0.00 0.00 66 1012.6
20260906061948 84 206 1.7 3.5 0.00 0.00 0.00 66 1012.7
20260906060944 84 190 0.9 3.5 0.00 0.00 0.00 66 1012.7
20260906060440 84 174 0.9 2.6 0.00 0.00 0.00 66 1012.7
20260906060434 85 221 1.7 5.2 0.00 0.00 0.00 66 1012.7
20260906055436 85 191 1.7 3.5 0.00 0.00 0.00 66 1012.6
20260906055431 85 207 0.9 6.1 0.00 0.00 0.00 66 1012.7
20260906054916 85 201 0.9 4.3 0.00 0.00 0.00 65 1012.6
20260906053905 85 184 1.7 6.1 0.00 0.00 0.00 65 1012.6
20260906053401 85 210 1.7 6.1 0.00 0.00 0.00 65 1012.5
20260906053357 85 195 1.7 6.1 0.00 0.00 0.00 65 1012.5
20260906052352 85 209 1.7 6.1 0.00 0.00 0.00 65 1012.5
20260906051849 85 205 1.7 7.0 0.00 0.00 0.00 64 1012.5
20260906051343 85 206 1.7 7.0 0.00 0.00 0.00 64 1012.5
20260906050838 85 174 2.6 7.0 0.00 0.00 0.00 64 1012.5
20260906050331 85 207 2.6 7.0 0.00 0.00 0.00 64 1012.5
20260906050326 86 126 2.6 6.1 0.00 0.00 0.00 63 1012.4
20260906045814 86 164 2.6 6.1 0.00 0.00 0.00 63 1012.5
20260906044804 86 146 2.6 7.0 0.00 0.00 0.00 63 1012.6
20260906044253 86 143 2.6 7.0 0.00 0.00 0.00 63 1012.6
20260906043744 86 128 2.6 6.1 0.00 0.00 0.00 62 1012.5
20260906043233 86 166 3.5 6.1 0.00 0.00 0.00 62 1012.5
20260906042724 86 163 2.6 6.1 0.00 0.00 0.00 62 1012.4
20260906042213 86 159 2.6 7.0 0.00 0.00 0.00 62 1012.3
20260906041724 86 150 2.6 7.0 0.00 0.00 0.00 61 1012.4
20260906041153 86 146 2.6 6.1 0.00 0.00 0.00 61 1012.4
20260906040644 86 151 2.6 6.1 0.00 0.00 0.00 61 1012.3
20260906040134 86 139 3.5 7.0 0.00 0.00 0.00 61 1012.4
20260906035624 87 156 3.5 8.7 0.00 0.00 0.00 61 1012.4
20260906035113 87 142 3.5 8.7 0.00 0.00 0.00 60 1012.3
20260906034603 87 143 3.5 7.0 0.00 0.00 0.00 60 1012.3
20260906034555 87 161 3.5 8.7 0.00 0.00 0.00 60 1012.4
20260906033544 87 150 3.5 8.7 0.00 0.00 0.00 60 1012.4
20260906033033 87 199 4.3 11.3 0.00 0.00 0.00 60 1012.4
20260906032523 87 120 4.3 11.3 0.00 0.00 0.00 59 1012.4
20260906032013 87 136 4.3 8.7 0.00 0.00 0.00 59 1012.5
20260906031455 87 177 3.5 8.7 0.00 0.00 0.00 59 1012.4
20260906030945 87 139 3.5 10.4 0.00 0.00 0.00 59 1012.4
20260906030935 87 147 4.3 10.4 0.00 0.00 0.00 58 1012.4
20260906025925 88 125 4.3 9.6 0.00 0.00 0.00 58 1012.4
20260906025916 88 124 4.3 10.4 0.00 0.00 0.00 58 1012.4
20260906024905 88 117 3.5 10.4 0.00 0.00 0.00 58 1012.4
20260906024858 88 139 3.5 8.7 0.00 0.00 0.00 58 1012.3
20260906023856 88 152 4.3 11.3 0.00 0.00 0.00 58 1012.3
20260906023357 88 139 3.5 8.7 0.00 0.00 0.00 57 1012.1
20260906022847 88 124 3.5 9.6 0.00 0.00 0.00 57 1012.1
20260906022337 88 159 4.3 9.6 0.00 0.00 0.00 57 1011.9
20260906021827 88 138 5.2 11.3 0.00 0.00 0.00 57 1011.9
20260906021317 88 122 5.2 11.3 0.00 0.00 0.00 57 1011.7
20260906020807 88 145 5.2 10.4 0.00 0.00 0.00 56 1011.7
20260906020256 89 157 6.1 12.2 0.00 0.00 0.00 56 1011.7
20260906015747 89 127 5.2 12.2 0.00 0.00 0.00 56 1011.6
20260906015235 89 114 5.2 10.4 0.00 0.00 0.00 55 1011.5
20260906014725 89 141 6.1 14.8 0.00 0.00 0.00 55 1011.5
20260906014215 89 147 6.1 14.8 0.00 0.00 0.00 54 1011.3
20260906013705 90 129 5.2 13.9 0.00 0.00 0.00 54 1011.2
20260906013155 90 128 4.3 11.3 0.00 0.00 0.00 54 1011.1
20260906012645 90 151 5.2 14.8 0.00 0.00 0.00 53 1011.1
20260906012134 90 138 6.1 14.8 0.00 0.00 0.00 53 1011.0
20260906011625 91 136 6.1 15.6 0.00 0.00 0.00 52 1010.8
20260906011617 91 129 6.1 15.6 0.00 0.00 0.00 51 1010.8
20260906011106 92 79 6.1 13.9 0.00 0.00 0.00 50 1010.8
20260906010555 93 80 7.0 20.0 0.00 0.00 0.00 49 1010.7
20260906005545 93 157 8.7 20.0 0.00 0.00 0.00 48 1010.7
20260906005123 95 86 7.0 17.4 0.00 0.00 0.00 46 1010.6
20260906004622 96 148 3.5 16.5 0.00 0.00 0.00 42 1010.5
20260906003502 96 109 3.5 10.4 0.00 0.00 0.00 40 1010.4
20260906002953 96 149 2.6 7.8 0.00 0.00 0.00 39 1010.4
20260906002443 96 134 2.6 7.8 0.00 0.00 0.00 39 1010.4
20260906001933 96 99 2.6 7.8 0.00 0.00 0.00 38 1010.4
20260906001421 97 136 3.5 10.4 0.00 0.00 0.00 38 1010.3
20260906000911 97 151 4.3 10.4 0.00 0.00 0.00 38 1010.3
20260906000403 97 61 4.3 9.6 0.00 0.00 0.00 38 1010.3
20260905235853 97 130 3.5 9.6 0.00 0.00 0.00 38 1010.2
20260905235844 97 102 2.6 7.0 0.00 0.00 0.00 38 1010.2
20260905234833 97 94 1.7 5.2 0.00 0.00 0.00 37 1010.2
20260905234316 97 139 1.7 5.2 0.00 0.00 0.00 37 1010.1